Flag for U.S.A. Weather past 2 weeks in Independence, Missouri, U.S.A.

Now
55 °F

Partly sunny.


Feels Like: 52 °F
Forecast: 49 / 75 °F
Wind: 9 mph from Southeast

Location: Lee's Summit Municipal Airport


UV Index: 5 (Moderate)

Visibility: 10 mi


Pressure: 30.01 "Hg

Humidity: 47%

Dew point: 35 °F

Location of IndependenceLocation

Historic Weather in Independence

°F

Independence temperature yesterday

Maximum temperature yesterday: 69 °F (at 3:53 PM)
Minimum temperature yesterday: 47 °F (at 6:53 AM)
Average temperature yesterday: 58 °F

Past Weeks' High & Low Weather Summary

 TemperatureHumidityPressure
High82 °F (Apr 12, 3:53 PM)93% (Apr 13, 5:53 PM)30.34 "Hg (Apr 13, 5:53 PM)
Low29 °F (Apr 15, 6:53 AM)20% (Apr 11, 2:53 PM)29.42 "Hg (Apr 13, 3:53 PM)
Average57 °F52%30.00 "Hg
* Reported Apr 8 8:53 AM — Apr 23 8:53 AM, Independence, Weather by CustomWeather, © 2014

Note: Actual official high and low records may vary slightly from our data, if they occured in-between our weather recording intervals... More about our weather records

Advertising

Historic Weather Conditions — Data for Previous 24 hours

 ConditionsComfort  
Time TempWeatherWind HumidityBarometerVisibility
8:53 AM
Apr 23
55 °FPartly sunny.9 mph47%30.01 "Hg10 mi
7:53 AM54 °FOvercast.10 mph49%30.01 "Hg10 mi
6:53 AM53 °FPartly cloudy.8 mph51%30.00 "Hg10 mi
5:53 AM54 °FOvercast.9 mph47%30.00 "Hg10 mi
4:53 AM54 °FOvercast.8 mph47%30.00 "Hg10 mi
3:53 AM55 °FOvercast.8 mph47%29.98 "Hg10 mi
2:53 AM53 °FOvercast.9 mph52%29.98 "Hg10 mi
1:53 AM54 °FClear.5 mph47%30.00 "Hg10 mi
12:53 AM55 °FPassing clouds.5 mph47%30.00 "Hg10 mi
11:53 PM
Apr 22
55 °FClear.6 mph45%30.01 "Hg10 mi
10:53 PM58 °FClear.5 mph41%30.01 "Hg10 mi
9:53 PM59 °FClear.6 mph39%30.01 "Hg10 mi
8:53 PM61 °FSunny.6 mph34%30.00 "Hg10 mi
7:53 PM61 °FSunny.6 mph36%29.99 "Hg10 mi
6:53 PM65 °FSunny.8 mph34%30.00 "Hg10 mi
5:53 PM68 °FSunny.6 mph27%30.01 "Hg10 mi
4:53 PM68 °FSunny.No wind27%30.03 "Hg10 mi
3:53 PM69 °FSunny.No wind27%30.04 "Hg10 mi
2:53 PM65 °FSunny.5 mph29%30.06 "Hg10 mi
1:53 PM64 °FSunny.7 mph30%30.09 "Hg10 mi
12:53 PM63 °FSunny.8 mph33%30.11 "Hg10 mi
11:53 AM60 °FSunny.8 mph35%30.14 "Hg10 mi
10:53 AM57 °FSunny.12 mph36%30.13 "Hg10 mi
9:53 AM55 °FSunny.15 mph42%30.14 "Hg10 mi
Weather by CustomWeather, © 2014

See weather overview